Weather History for Worland, WY

Change the Weather History Date:

Thursday, April 25, 2013

  Actual Average Record
Temperature  
Mean Temperature 48 °F 48 °F  
Max Temperature 65 °F 63 °F 86 °F (1987)
Min Temperature 30 °F 34 °F 11 °F (2008)
Degree Days  
Heating Degree Days 17 17  
Month to date heating degree days 659 503  
Since 1 July heating degree days 7114 7389  
Cooling Degree Days 0 0  
Month to date cooling degree days 0 0  
Year to date cooling degree days 0 0  
Moisture  
Dew Point 24 °F    
Average Humidity 47    
Maximum Humidity 82    
Minimum Humidity 11    
Precipitation  
Precipitation 0.00 in 0.04 in 0.59 in (1973)
Month to date precipitation 0.90 0.65  
Year to date precipitation 1.49 1.53  
Sea Level Pressure  
Sea Level Pressure 29.94 in    
Wind  
Wind Speed 4 mph (SW)    
Max Wind Speed 13 mph    
Max Gust Speed 17 mph    
Visibility 10 miles    
Events      
T = Trace of Precipitation, MM = Missing Value Source: NWS Daily Summary

Daily Weather History Graph

Daily Weather History Graph

Search for Another Location

Airport:

Trip Planner

Search our weather history database for the weather conditions in past years. The results will help you decide how hot, cold, wet, or windy it might be!

Date:

Astronomy

Apr. 25, 2013 Rise Set
Actual Time 6:11 AM MDT 8:08 PM MDT
Civil Twilight 5:40 AM MDT 8:39 PM MDT
Nautical Twilight 5:02 AM MDT 9:17 PM MDT
Astronomical Twilight 4:21 AM MDT 9:59 PM MDT
Moon 8:26 PM MDT (4/25) 5:57 AM MDT (4/25)
Length of Visible Light 14h 58m
Length of Day
13h 56m
Full, 100% of the Moon is Illuminated
Apr 25
Full
Apr 25
Full
May 2
Last Quarter
May 9
New
May 17
First Quarter

Hourly Weather History & Observations

Time (MDT) Temp. Windchill Dew Point Humidity Pressure Visibility Wind Dir Wind Speed Gust Speed Precip Events Conditions
12:53 AM 35.1 °F 29.3 °F 27.0 °F 72% 30.06 in 10.0 mi SSE 6.9 mph - N/A   Clear
1:53 AM 33.1 °F 25.5 °F 27.0 °F 78% 30.04 in 10.0 mi SE 9.2 mph - N/A   Clear
2:53 AM 33.1 °F 27.7 °F 26.1 °F 75% 30.02 in 10.0 mi ESE 5.8 mph - N/A   Clear
3:53 AM 34.0 °F 29.8 °F 26.1 °F 73% 30.01 in 10.0 mi Variable 4.6 mph - N/A   Clear
4:53 AM 32.0 °F - 27.0 °F 82% 30.00 in 10.0 mi Calm Calm - N/A   Clear
5:53 AM 32.0 °F 27.5 °F 26.1 °F 79% 29.99 in 10.0 mi SW 4.6 mph - N/A   Clear
6:53 AM 32.0 °F 28.7 °F 27.0 °F 82% 29.99 in 10.0 mi SSW 3.5 mph - N/A   Clear
7:53 AM 33.1 °F 27.7 °F 28.0 °F 82% 30.00 in 10.0 mi SSW 5.8 mph - N/A   Clear
8:53 AM 35.1 °F - 28.9 °F 78% 30.00 in 10.0 mi Calm Calm - N/A   Clear
9:53 AM 41.0 °F 36.4 °F 30.9 °F 67% 29.97 in 10.0 mi WSW 6.9 mph - N/A   Clear
10:53 AM 44.1 °F - 28.0 °F 53% 29.96 in 10.0 mi Calm Calm - N/A   Clear
11:53 AM 50.0 °F - 26.1 °F 39% 29.94 in 10.0 mi Calm Calm - N/A   Clear
12:53 PM 55.9 °F - 26.1 °F 32% 29.90 in 10.0 mi Calm Calm - N/A   Clear
1:53 PM 60.1 °F - 19.0 °F 20% 29.88 in 10.0 mi NNE 4.6 mph - N/A   Clear
2:53 PM 61.0 °F - 12.9 °F 15% 29.86 in 10.0 mi West 3.5 mph - N/A   Clear
3:53 PM 63.0 °F - 12.0 °F 14% 29.83 in 10.0 mi Calm Calm - N/A   Clear
4:53 PM 64.0 °F - 9.0 °F 12% 29.83 in 10.0 mi Calm Calm - N/A   Clear
5:53 PM 64.0 °F - 10.9 °F 13% 29.84 in 10.0 mi Variable 3.5 mph - N/A   Clear
6:53 PM 63.0 °F - 23.0 °F 22% 29.85 in 10.0 mi NW 9.2 mph - N/A   Clear
7:53 PM 57.9 °F - 25.0 °F 28% 29.88 in 10.0 mi WNW 12.7 mph - N/A   Clear
8:53 PM 52.0 °F - 27.0 °F 38% 29.92 in 10.0 mi NNW 5.8 mph - N/A   Clear
9:53 PM 54.0 °F - 19.9 °F 26% 29.94 in 10.0 mi Variable 4.6 mph - N/A   Clear
10:53 PM 45.0 °F 42.6 °F 28.0 °F 52% 29.97 in 10.0 mi SSW 4.6 mph - N/A   Scattered Clouds
11:53 PM 44.1 °F 39.5 °F 28.0 °F 53% 29.98 in 10.0 mi SSE 8.1 mph - N/A   Clear